Midland Airpark, TX

10:52 AM CDT on June 26, 2017 (GMT -0500)
Midland

Weather History for KMDD - March, 2013

Change the Weather History Date:

Saturday, March 16, 2013

  Actual Average (KMAF) Record (KMAF)
Temperature  
Mean Temperature 73 °F -  
Max Temperature 91 °F 67 °F 91 °F (2013)
Min Temperature 55 °F 41 °F 23 °F (1947)
Cooling Degree Days 8    
Growing Degree Days 23 (Base 50)    
Moisture  
Dew Point 26 °F    
Average Humidity 23    
Maximum Humidity 47    
Minimum Humidity 4    
Precipitation  
Precipitation 0.00 in - - ()
Sea Level Pressure  
Sea Level Pressure 29.79 in    
Wind  
Wind Speed 12 mph (SW)    
Max Wind Speed 17 mph    
Max Gust Speed 25 mph    
Visibility 10 miles    
Events      
Averages and records for this station are not official NWS values.
T = Trace of Precipitation, MM = Missing Value Source: NWS Daily Summary

Daily Weather History Graph

Daily Weather History Graph

Search for Another Location

Airport or City:

Trip Planner

Search our weather history database for the weather conditions in past years. The results will help you decide how hot, cold, wet, or windy it might be!

Date:

Astronomy

Mar. 16, 2013 Rise Set
Actual Time 7:56 AM CDT 7:57 PM CDT
Civil Twilight 7:32 AM CDT 8:21 PM CDT
Nautical Twilight 7:04 AM CDT 8:50 PM CDT
Astronomical Twilight 6:35 AM CDT 9:18 PM CDT
Moon 10:45 AM CDT (3/16) No Moon Set
Length of Visible Light 12h 49m
Length of Day
12h 00m
Waxing Crescent, 23% of the Moon is Illuminated
Mar 16
Waxing Crescent
Mar 19
First Quarter
Mar 27
Full
Apr 2
Last Quarter
Apr 10
New

Hourly Weather History & Observations

Time (CDT) Temp. Dew Point Humidity Pressure Visibility Wind Dir Wind Speed Gust Speed Precip Events Conditions
12:15 AM 68.2 °F 37.4 °F 32% 29.91 in 10.0 mi South 16.1 mph 21.9 mph N/A   Clear
12:35 AM 67.6 °F 37.4 °F 33% 29.90 in 10.0 mi South 16.1 mph 21.9 mph N/A   Clear
12:55 AM 66.7 °F 37.4 °F 34% 29.90 in 10.0 mi South 16.1 mph 21.9 mph N/A   Clear
1:15 AM 66.4 °F 37.4 °F 34% 29.89 in 10.0 mi South 17.3 mph 20.7 mph N/A   Clear
1:55 AM 65.5 °F 37.2 °F 35% 29.89 in 10.0 mi South 16.1 mph 21.9 mph N/A   Clear
2:15 AM 64.9 °F 37.2 °F 36% 29.88 in 10.0 mi South 13.8 mph 19.6 mph N/A   Clear
2:35 AM 64.2 °F 36.9 °F 36% 29.87 in 10.0 mi South 16.1 mph - N/A   Clear
2:55 AM 63.5 °F 36.5 °F 37% 29.86 in 10.0 mi South 13.8 mph 20.7 mph N/A   Clear
3:15 AM 63.0 °F 36.3 °F 37% 29.86 in 10.0 mi South 13.8 mph - N/A   Clear
3:35 AM 62.1 °F 36.1 °F 38% 29.86 in 10.0 mi SSW 9.2 mph - N/A   Clear
3:55 AM 61.3 °F 35.8 °F 39% 29.85 in 10.0 mi SSW 9.2 mph - N/A   Clear
4:35 AM 60.1 °F 35.6 °F 40% 29.85 in 10.0 mi SSW 8.1 mph - N/A   Clear
4:55 AM 60.1 °F 35.6 °F 40% 29.84 in 10.0 mi SSW 8.1 mph - N/A   Clear
5:15 AM 59.5 °F 35.6 °F 41% 29.84 in 10.0 mi SSW 6.9 mph - N/A   Clear
5:35 AM 59.0 °F 35.6 °F 42% 29.84 in 10.0 mi South 9.2 mph - N/A   Clear
5:55 AM 58.1 °F 35.6 °F 43% 29.84 in 10.0 mi South 8.1 mph - N/A   Clear
6:15 AM 57.2 °F 35.6 °F 44% 29.84 in 10.0 mi SSW 5.8 mph - N/A   Clear
6:35 AM 56.8 °F 35.4 °F 45% 29.84 in 10.0 mi SSW 8.1 mph - N/A   Clear
6:55 AM 57.0 °F 35.4 °F 44% 29.84 in 10.0 mi South 8.1 mph - N/A   Clear
7:15 AM 56.3 °F 35.4 °F 46% 29.84 in 10.0 mi South 5.8 mph - N/A   Clear
7:35 AM 55.8 °F 35.6 °F 47% 29.84 in 10.0 mi SSW 9.2 mph - N/A   Clear
7:55 AM 55.6 °F 35.6 °F 47% 29.83 in 10.0 mi SSW 6.9 mph - N/A   Clear
8:15 AM 55.8 °F 35.6 °F 47% 29.83 in 10.0 mi SSW 8.1 mph - N/A   Clear
8:35 AM 56.8 °F 35.2 °F 44% 29.83 in 10.0 mi SSW 9.2 mph - N/A   Clear
8:55 AM 59.2 °F 34.7 °F 40% 29.84 in 10.0 mi SSW 11.5 mph - N/A   Clear
9:15 AM 61.0 °F 33.6 °F 36% 29.84 in 10.0 mi SW 11.5 mph - N/A   Clear
9:35 AM 63.3 °F 32.9 °F 32% 29.84 in 10.0 mi SSW 9.2 mph - N/A   Clear
9:55 AM 65.7 °F 32.4 °F 29% 29.84 in 10.0 mi SSW 6.9 mph - N/A   Clear
10:15 AM 68.0 °F 31.8 °F 26% 29.84 in 10.0 mi SW 10.4 mph - N/A   Clear
10:35 AM 71.2 °F 29.8 °F 22% 29.84 in 10.0 mi SW 15.0 mph - N/A   Clear
10:55 AM 74.1 °F 27.7 °F 18% 29.84 in 10.0 mi SW 11.5 mph - N/A   Clear
11:15 AM 77.0 °F 24.3 °F 14% 29.83 in 10.0 mi WSW 12.7 mph - N/A   Clear
11:35 AM 78.3 °F 24.1 °F 13% 29.83 in 10.0 mi SW 11.5 mph 16.1 mph N/A   Clear
11:55 AM 81.1 °F 21.6 °F 11% 29.83 in 10.0 mi WSW 9.2 mph 17.3 mph N/A   Clear
12:15 PM 82.6 °F 20.7 °F 10% 29.82 in 10.0 mi WSW 12.7 mph 18.4 mph N/A   Clear
12:35 PM 83.3 °F 19.8 °F 10% 29.82 in 10.0 mi West 13.8 mph 17.3 mph N/A   Clear
12:55 PM 84.2 °F 20.7 °F 10% 29.81 in 10.0 mi West 13.8 mph 18.4 mph N/A   Clear
1:15 PM 85.3 °F 21.4 °F 10% 29.80 in 10.0 mi West 9.2 mph 17.3 mph N/A   Clear
1:35 PM 86.2 °F 21.4 °F 9% 29.80 in 10.0 mi WNW 10.4 mph 21.9 mph N/A   Clear
1:55 PM 87.6 °F 20.7 °F 9% 29.78 in 10.0 mi WNW 11.5 mph 16.1 mph N/A   Clear
2:15 PM 88.5 °F 20.8 °F 8% 29.77 in 10.0 mi West 15.0 mph 20.7 mph N/A   Clear
2:35 PM 88.9 °F 20.7 °F 8% 29.76 in 10.0 mi West 13.8 mph 17.3 mph N/A   Clear
2:55 PM 89.6 °F 20.1 °F 8% 29.75 in 10.0 mi West 11.5 mph 18.4 mph N/A   Clear
3:15 PM 90.3 °F 20.1 °F 8% 29.73 in 10.0 mi West 12.7 mph 23.0 mph N/A   Clear
3:35 PM 90.5 °F 20.1 °F 8% 29.72 in 10.0 mi West 8.1 mph 19.6 mph N/A   Clear
3:55 PM 91.2 °F 19.9 °F 7% 29.71 in 10.0 mi WSW 15.0 mph 19.6 mph N/A   Clear
4:15 PM 91.8 °F 18.0 °F 7% 29.70 in 10.0 mi West 15.0 mph 21.9 mph N/A   Clear
4:35 PM 91.6 °F 14.7 °F 6% 29.70 in 10.0 mi West 13.8 mph - N/A   Clear
4:55 PM 91.2 °F 12.2 °F 5% 29.69 in 10.0 mi WSW 12.7 mph 23.0 mph N/A   Clear
5:15 PM 91.2 °F 12.6 °F 5% 29.69 in 10.0 mi West 10.4 mph 17.3 mph N/A   Clear
5:35 PM 90.7 °F 11.8 °F 5% 29.68 in 10.0 mi West 15.0 mph 19.6 mph N/A   Clear
5:55 PM 90.3 °F 7.3 °F 4% 29.68 in 10.0 mi SW 17.3 mph 25.3 mph N/A   Clear
6:15 PM 89.6 °F 7.2 °F 5% 29.68 in 10.0 mi WSW 11.5 mph - N/A   Clear
6:35 PM 89.2 °F 7.2 °F 5% 29.68 in 10.0 mi WSW 17.3 mph 23.0 mph N/A   Clear
6:55 PM 88.2 °F 5.5 °F 4% 29.68 in 10.0 mi WSW 13.8 mph 18.4 mph N/A   Clear
7:15 PM 87.8 °F 5.2 °F 4% 29.69 in 10.0 mi WSW 11.5 mph 16.1 mph N/A   Clear
7:35 PM 86.0 °F 3.4 °F 4% 29.69 in 10.0 mi WSW 11.5 mph - N/A   Clear
7:55 PM 84.2 °F 3.0 °F 4% 29.69 in 10.0 mi WSW 10.4 mph - N/A   Clear
8:15 PM 81.9 °F 3.7 °F 5% 29.70 in 10.0 mi WSW 8.1 mph - N/A   Clear
8:35 PM 80.2 °F 5.5 °F 6% 29.70 in 10.0 mi SW 5.8 mph - N/A   Clear
8:55 PM 78.8 °F 6.1 °F 6% 29.71 in 10.0 mi WSW 8.1 mph - N/A   Clear
9:15 PM 75.6 °F 7.5 °F 7% 29.72 in 10.0 mi North 8.1 mph - N/A   Clear
9:35 PM 74.1 °F 25.2 °F 16% 29.74 in 10.0 mi NE 11.5 mph - N/A   Clear
9:55 PM 72.9 °F 29.7 °F 20% 29.75 in 10.0 mi ENE 12.7 mph 19.6 mph N/A   Clear
10:15 PM 71.2 °F 31.8 °F 23% 29.76 in 10.0 mi East 13.8 mph - N/A   Clear
10:35 PM 70.5 °F 34.7 °F 27% 29.76 in 10.0 mi East 9.2 mph - N/A   Clear
10:55 PM 69.3 °F 35.2 °F 29% 29.76 in 10.0 mi East 6.9 mph - N/A   Clear
11:15 PM 67.1 °F 35.4 °F 31% 29.76 in 10.0 mi East 4.6 mph - N/A   Clear
11:35 PM 66.0 °F 36.0 °F 33% 29.77 in 10.0 mi NE 10.4 mph - N/A   Clear
11:55 PM 63.9 °F 37.4 °F 38% 29.77 in 10.0 mi ENE 6.9 mph - N/A   Clear